Regional Weather Roundup
Issued by NWS

Home | Current Version | Previous Version | Graphics & Text | Print | Product List | Glossary On
Versions: 1 2 3 4 5 6 7 8 9 10 11 12 13 14 15 16 17 18 19 20 21 22 23 24 25 26 27 28 29 30 31 32 33 34 35 36 37 38 39 40 41 42 43 44 45 46 47 48 49 50
000
ASUS43 KFSD 311602
RWRSD

WEATHER ROUNDUP FOR SOUTH DAKOTA
NATIONAL WEATHER SERVICE SIOUX FALLS SD
1000 AM CST SAT JAN 31 2015

NOTE: "FAIR" INDICATES FEW OR NO CLOUDS BELOW 12,000 FEET WITH NO
SIGNIFICANT WEATHER AND/OR OBSTRUCTIONS TO VISIBILITY.


SDZ001>005-009-010-012>017-311700-
NORTHWEST AND NORTH CENTRAL SOUTH DAKOTA

CITY           SKY/WX    TMP DP  RH WIND       PRES   REMARKS
BUFFALO          N/A     23  21  92 E20       29.96S WCI   8
FAITH            N/A     22  18  85 E13       30.09R WCI  10
MOBRIDGE       CLOUDY    23  19  85 NE15      30.16R WCI  10
$$

SDZ012>016-024>037-041>051-057-063-072>074-311700-
SOUTHWEST AND SOUTH CENTRAL SOUTH DAKOTA

CITY           SKY/WX    TMP DP  RH WIND       PRES   REMARKS
RAPID CTY ARPT CLOUDY    28  25  88 E8        30.02R WCI  20
PIERRE         CLOUDY    23  22  96 E16       30.13F FOG     WCI  10
CUSTER         CLOUDY    26  20  77 NE8       29.91F WCI  18
ELLSWORTH AFB  CLOUDY    26  25  94 E7        30.01  FOG     WCI  19
PHILIP         FOG       26  24  92 E14       30.08S VSB 1/4 WCI  14
PINE RIDGE     CLOUDY    30  24  78 E10       29.98F WCI  21
WINNER         FOG       26  24  92 NE15      30.09R VSB 1/4 WCI  14
$$

SDZ004>011-016>023-039-040-311700-
NORTHEAST SOUTH DAKOTA

CITY           SKY/WX    TMP DP  RH WIND       PRES   REMARKS
ABERDEEN       CLOUDY    18  12  77 NE20      30.25R WCI   2
WATERTOWN      CLOUDY    17  14  88 NE18      30.17R FOG     WCI   1
SISSETON         N/A     16  12  84 NE18      30.26R WCI   0
$$

SDZ017-020-022-023-036>040-048>070-311700-
SOUTHEAST SOUTH DAKOTA

CITY           SKY/WX    TMP DP  RH WIND       PRES   REMARKS
SIOUX FALLS    CLOUDY    26  24  92 NE17      30.14S FOG     WCI  13
HURON          CLOUDY    24  20  84 NE17      30.18S WCI  11
MITCHELL       CLOUDY    27  26  96 NE15      30.15S FOG     WCI  15
YANKTON        CLOUDY    30  27  86 NE12      30.11R WCI  21
$$

ABBREVIATIONS USED IN REMARKS
   TC - TEMPERATURE IN CELSIUS
  WCI - WIND CHILL INDEX
   HX - HEAT INDEX
  VSB - VISIBILITY



USA.gov is the U.S. government's official web portal to all federal, state and local government web resources and services.